La Mesa, Honduras

2:18 PM CST on September 26, 2017 (GMT -0600)
La Mesa International

Weather History for MHLM - November, 2012

Change the Weather History Date:

Saturday, November 10, 2012

  Actual Average Record
Temperature  
Mean Temperature 70 °F -  
Max Temperature 73 °F 82 °F 91 °F (2002)
Min Temperature 68 °F 68 °F 46 °F (1999)
Cooling Degree Days 6    
Growing Degree Days 20 (Base 50)    
Moisture  
Dew Point 71 °F    
Average Humidity 100    
Maximum Humidity 100    
Minimum Humidity 97    
Precipitation  
Precipitation 0.04 in 0.17 in - ()
Sea Level Pressure  
Sea Level Pressure 30.02 in    
Wind  
Wind Speed 2 mph ()    
Max Wind Speed 8 mph    
Max Gust Speed -    
Visibility 4.7 miles    
Events Rain    
Averages and records for this station are not official NWS values.
T = Trace of Precipitation, MM = Missing Value Source: Averaged Metar Reports

Daily Weather History Graph

Daily Weather History Graph

Search for Another Location

Airport or City:

Trip Planner

Search our weather history database for the weather conditions in past years. The results will help you decide how hot, cold, wet, or windy it might be!

Date:

Astronomy

Nov. 10, 2012 Rise Set
Actual Time 5:51 AM CST 5:19 PM CST
Civil Twilight 5:29 AM CST 5:41 PM CST
Nautical Twilight 5:03 AM CST 6:07 PM CST
Astronomical Twilight 4:37 AM CST 6:33 PM CST
Moon 2:27 AM CST (11/10) 2:40 PM CST (11/10)
Length of Visible Light 12h 12m
Length of Day
11h 27m
Waning Crescent, 14% of the Moon is Illuminated
Nov 10
Waning Crescent
Nov 13
New
Nov 20
First Quarter
Nov 28
Full
Dec 6
Last Quarter

Hourly Weather History & Observations

Time (CST) Temp. Dew Point Humidity Pressure Visibility Wind Dir Wind Speed Gust Speed Precip Events Conditions
12:00 AM 69 °F 69 °F 99% 30.04 in 6 mi Calm Calm - -   Haze
12:00 AM 68.0 °F 68.0 °F 100% 30.04 in 6.2 mi Calm Calm - N/A   Scattered Clouds
1:00 AM 68.0 °F 68.0 °F 100% 30.04 in 6.2 mi Calm Calm - N/A   Scattered Clouds
2:00 AM 68.0 °F 68.0 °F 100% 30.04 in 6.2 mi Calm Calm - N/A   Scattered Clouds
3:00 AM 68.0 °F 68.0 °F 100% 29.98 in 6.2 mi South 3.5 mph - N/A   Scattered Clouds
4:00 AM 68.0 °F 68.0 °F 100% 29.98 in 6.2 mi South 4.6 mph - N/A   Scattered Clouds
5:00 AM 69.8 °F 69.8 °F 100% 30.01 in 6.2 mi South 3.5 mph - N/A   Mostly Cloudy
6:00 AM 69 °F 69 °F 100% 30.03 in 6 mi SSW 3.5 mph - -   Partly Cloudy
6:00 AM 69.8 °F 69.8 °F 100% 30.04 in 6.2 mi SSW 3.5 mph - N/A   Mostly Cloudy
7:00 AM 69.8 °F 69.8 °F 100% 30.04 in 3.7 mi SW 2.3 mph - N/A   Overcast
8:00 AM 69.8 °F 69.8 °F 100% 30.06 in 3.7 mi South 2.3 mph - N/A   Mostly Cloudy
9:00 AM 71 °F 71 °F 99% 30.09 in 3 mi ESE 2.3 mph - -   Overcast
9:00 AM 71.6 °F 71.6 °F 100% 30.09 in 3.1 mi ESE 2.3 mph - N/A   Overcast
10:00 AM 71.6 °F 71.6 °F 100% 30.09 in 3.1 mi SSE 2.3 mph - N/A   Light Drizzle
11:00 AM 73.4 °F 73.4 °F 100% 30.06 in 3.7 mi East 4.6 mph - N/A   Overcast
12:00 PM 73 °F 72 °F 98% 30.04 in 4 mi East 3.5 mph - -   Overcast
12:00 PM 73.4 °F 73.4 °F 100% 30.04 in 3.7 mi East 3.5 mph - N/A   Overcast
1:00 PM 73.4 °F 73.4 °F 100% 30.01 in 1.9 mi NNE 2.3 mph - N/A   Light Drizzle
2:00 PM 71.6 °F 71.6 °F 100% 29.98 in 2.5 mi East 2.3 mph - N/A   Overcast
3:00 PM 74 °F 73 °F 97% 29.97 in 4 mi NE 2.3 mph - -   Overcast
4:00 PM 73.4 °F 73.4 °F 100% 29.98 in 3.7 mi ENE 3.5 mph - N/A   Overcast
5:00 PM 71.6 °F 71.6 °F 100% 29.98 in 1.2 mi East 2.3 mph - N/A   Drizzle
6:00 PM 71 °F 71 °F 100% 30.00 in 4 mi North 4.6 mph - - Rain Light Drizzle
6:00 PM 71.6 °F 71.6 °F 100% 30.01 in 4.3 mi North 4.6 mph - N/A   Mostly Cloudy
7:00 PM 71.6 °F 71.6 °F 100% 30.01 in 6.2 mi NW 6.9 mph - N/A   Mostly Cloudy
8:00 PM 71.6 °F 71.6 °F 100% 30.01 in 6.2 mi West 8.1 mph - N/A   Mostly Cloudy
9:00 PM 71 °F 71 °F 100% 30.03 in 6 mi West 3.5 mph - -   Partly Cloudy
9:00 PM 71.6 °F 71.6 °F 100% 30.01 in 6.2 mi West 3.5 mph - N/A   Mostly Cloudy
10:00 PM 71.6 °F 71.6 °F 100% 30.04 in 6.2 mi Calm Calm - N/A   Mostly Cloudy
11:00 PM 71.6 °F 71.6 °F 100% 30.01 in 6.2 mi Calm Calm - N/A   Scattered Clouds